Weather History for Westfield, MA

Change the Weather History Date:

Wednesday, February 26, 2014

  Actual Average Record
Temperature  
Mean Temperature 14 °F -  
Max Temperature 26 °F 37 °F 61 °F (2002)
Min Temperature 3 °F 19 °F -2 °F (2003)
Degree Days  
Heating Degree Days 50    
Moisture  
Dew Point 0 °F    
Average Humidity 54    
Maximum Humidity 80    
Minimum Humidity 28    
Precipitation  
Precipitation 0.00 in - - ()
Sea Level Pressure  
Sea Level Pressure 29.88 in    
Wind  
Wind Speed 5 mph (West)    
Max Wind Speed 18 mph    
Max Gust Speed 28 mph    
Visibility 10 miles    
Events      
Averages and records for this station are not official NWS values.
T = Trace of Precipitation, MM = Missing Value Source: NWS Daily Summary

Daily Weather History Graph

Daily Weather History Graph

Search for Another Location

Airport:

Trip Planner

Search our weather history database for the weather conditions in past years. The results will help you decide how hot, cold, wet, or windy it might be!

Date:

Astronomy

Feb. 26, 2014 Rise Set
Actual Time 6:30 AM EST 5:37 PM EST
Civil Twilight 6:02 AM EST 6:05 PM EST
Nautical Twilight 5:30 AM EST 6:37 PM EST
Astronomical Twilight 4:57 AM EST 7:10 PM EST
Moon 4:17 AM EST (2/26) 2:46 PM EST (2/26)
Length of Visible Light 12h 02m
Length of Day
11h 06m
Waning Crescent, 10% of the Moon is Illuminated
Feb 26
Waning Crescent
Mar 1
New
Mar 8
First Quarter
Mar 16
Full
Mar 23
Last Quarter

Hourly Weather History & Observations

Time (EST) Temp. Windchill Dew Point Humidity Pressure Visibility Wind Dir Wind Speed Gust Speed Precip Events Conditions
12:53 AM 14.0 °F - 3.0 °F 62% 29.96 in 10.0 mi Calm Calm - N/A   Clear
1:53 AM 10.0 °F - 1.9 °F 70% 29.96 in 10.0 mi Calm Calm - N/A   Clear
2:53 AM 8.1 °F - 3.0 °F 80% 29.95 in 10.0 mi Calm Calm - N/A   Clear
3:53 AM 7.0 °F 0.1 °F 1.9 °F 80% 29.93 in 10.0 mi South 3.5 mph - N/A   Clear
4:53 AM 9.0 °F - 3.9 °F 80% 29.92 in 10.0 mi Calm Calm - N/A   Mostly Cloudy
5:53 AM 10.0 °F 3.6 °F 3.9 °F 76% 29.90 in 10.0 mi ESE 3.5 mph - N/A   Overcast
6:53 AM 12.0 °F 5.9 °F 3.9 °F 70% 29.88 in 10.0 mi SW 3.5 mph - N/A   Mostly Cloudy
7:53 AM 12.9 °F 5.2 °F 6.1 °F 74% 29.89 in 10.0 mi South 4.6 mph - N/A   Scattered Clouds
8:53 AM 16.0 °F 6.3 °F 7.0 °F 68% 29.88 in 10.0 mi South 6.9 mph - N/A   Mostly Cloudy
9:53 AM 19.0 °F 11.1 °F 8.1 °F 62% 29.88 in 10.0 mi SSW 5.8 mph - N/A   Clear
10:53 AM 26.1 °F 17.6 °F 6.1 °F 43% 29.87 in 10.0 mi WSW 8.1 mph - N/A   Scattered Clouds
11:53 AM 26.1 °F 13.6 °F 6.1 °F 43% 29.85 in 10.0 mi West 16.1 mph 27.6 mph N/A   Overcast
12:53 PM 26.1 °F 16.8 °F 8.1 °F 47% 29.82 in 10.0 mi WSW 9.2 mph - N/A   Overcast
1:53 PM 26.1 °F 13.1 °F 6.1 °F 43% 29.81 in 10.0 mi WNW 17.3 mph - N/A   Overcast
2:53 PM 26.1 °F 12.7 °F 1.9 °F 35% 29.81 in 10.0 mi WNW 18.4 mph 23.0 mph N/A   Overcast
3:53 PM 25.0 °F 12.2 °F -0.9 °F 33% 29.83 in 10.0 mi NW 16.1 mph 25.3 mph N/A   Clear
4:53 PM 21.9 °F 8.2 °F -7.1 °F 28% 29.85 in 10.0 mi WNW 16.1 mph 26.5 mph N/A   Clear
5:53 PM 19.0 °F 5.0 °F -7.1 °F 31% 29.86 in 10.0 mi NNW 15.0 mph - N/A   Clear
6:53 PM 17.1 °F 3.6 °F -8.0 °F 33% 29.88 in 10.0 mi NNW 12.7 mph - N/A   Clear
7:53 PM 14.0 °F 1.2 °F -7.1 °F 39% 29.88 in 10.0 mi NNW 10.4 mph - N/A   Clear
8:53 PM 14.0 °F 5.1 °F -9.9 °F 34% 29.89 in 10.0 mi North 5.8 mph - N/A   Clear
9:53 PM 9.0 °F - -8.0 °F 46% 29.91 in 10.0 mi Calm Calm - N/A   Clear
10:53 PM 3.9 °F - -7.1 °F 60% 29.90 in 10.0 mi Calm Calm - N/A   Clear
11:53 PM 3.9 °F - -5.1 °F 66% 29.91 in 10.0 mi Calm Calm - N/A   Clear